Date String (YYYY-MM-DD hh:mm:ss) UTC,Instrument flags,absolute air pressure of the measurement (hPa),sample flow rate (lpm),inlet stack bypass flow (lpm),air temperature of the measurement (°C),ambient temperature measured by the external sensor (°C),aerosol sample conditioner tube jacket temperature (°C),OPC LED temperature (°C),internal box temperature (°C),relative humidity of the measurement (%),span deviation,mass concentration of particles derived from Lorenz-Mie calculation of OPC scattering (μg/m³),mass concentration of particles derived from Lorenz-Mie calculation of OPC scattering (μg/m³),mass concentration of particles derived from Lorenz-Mie calculation of OPC scattering (μg/m³)
DateTimeUTC,F1_M11,P_M11,Q1_M11,Q2_M11,T1_M11,T2_M11,T3_M11,T4_M11,T5_M11,U1_M11,ZSPAN_M11,X2_M11,X0_M11,X1_M11
2024-03-22 12:00:00,SystemResetWarning,0830.6,5.00,000.00,020.3,019.7,000.0,029.0,022.2,19.9,0000.0,0003.88,0015.13,0002.60
2024-03-22 12:01:00,SystemResetWarning,0830.6,4.99,000.00,020.3,019.7,000.0,029.0,022.2,19.8,0000.0,0003.89,0015.25,0002.59
2024-03-22 12:02:00,SystemResetWarning,0830.6,5.00,000.00,020.3,019.7,000.0,029.0,022.2,19.8,0000.0,0003.94,0015.66,0002.58
2024-03-22 12:03:00,SystemResetWarning,0830.7,5.00,000.00,020.3,019.7,000.0,029.0,022.2,19.8,0000.0,0003.98,0014.60,0002.57
2024-03-22 12:04:00,SystemResetWarning,0830.6,5.00,000.00,020.3,019.7,000.0,029.0,022.2,19.9,0000.0,0003.96,0014.54,0002.57
2024-03-22 12:05:00,SystemResetWarning,0830.6,4.99,000.00,020.3,019.7,000.0,029.0,022.2,19.9,0000.0,0003.96,0014.70,0002.57
2024-03-22 12:06:00,SystemResetWarning,0830.6,5.00,000.00,020.3,019.7,000.0,029.0,022.2,20.0,0000.0,0003.91,0015.25,0002.58
2024-03-22 12:07:00,SystemResetWarning,0830.7,5.00,000.00,020.3,019.6,000.0,029.0,022.2,20.0,0000.0,0003.93,0014.05,0002.58
2024-03-22 12:08:00,SystemResetWarning,0830.7,5.00,000.00,020.3,019.6,000.0,029.0,022.2,20.0,0000.0,0003.98,0013.77,0002.59
2024-03-22 12:09:00,SystemResetWarning,0830.7,5.00,000.00,020.3,019.6,000.0,029.0,022.2,20.0,0000.0,0003.99,0012.57,0002.58
2024-03-22 12:10:00,SystemResetWarning,0830.7,5.00,000.00,020.3,019.6,000.0,028.9,022.1,20.0,0000.0,0003.97,0012.51,0002.56
2024-03-22 12:11:00,SystemResetWarning,0830.7,5.00,000.00,020.3,019.6,000.0,028.9,022.1,20.0,0000.0,0003.96,0012.76,0002.55
2024-03-22 12:12:00,SystemResetWarning,0830.7,5.00,000.00,020.3,019.6,000.0,028.9,022.1,20.0,0000.0,0003.99,0012.67,0002.56
2024-03-22 12:13:00,SystemResetWarning,0830.8,5.00,000.00,020.3,019.6,000.0,028.9,022.1,20.0,0000.0,0003.97,0011.65,0002.57
2024-03-22 12:14:00,SystemResetWarning,0830.9,5.00,000.00,020.3,019.6,000.0,028.9,022.1,20.0,0000.0,0003.92,0011.57,0002.58
2024-03-22 12:15:00,SystemResetWarning,0830.8,5.00,000.00,020.3,019.6,000.0,028.9,022.1,20.0,0000.0,0003.93,0011.61,0002.57
2024-03-22 12:16:00,SystemResetWarning,0830.9,4.99,000.00,020.3,019.6,000.0,028.9,022.1,20.0,0000.0,0003.93,0011.19,0002.57
2024-03-22 12:17:00,SystemResetWarning,0830.9,5.00,000.00,020.3,019.6,000.0,028.9,022.1,20.0,0000.0,0003.92,0010.42,0002.56
2024-03-22 12:18:00,SystemResetWarning,0830.9,5.00,000.00,020.3,019.6,000.0,028.9,022.1,20.0,0000.0,0003.91,0011.32,0002.55
2024-03-22 12:19:00,SystemResetWarning,0830.9,4.99,000.00,020.2,019.5,000.0,028.9,022.1,20.0,0000.0,0003.85,0011.37,0002.54
2024-03-22 12:20:00,SystemResetWarning,0830.9,5.00,000.00,020.2,019.5,000.0,028.9,022.1,20.0,0000.0,0003.82,0012.12,0002.54
2024-03-22 12:21:00,SystemResetWarning,0830.9,5.00,000.00,020.2,019.5,000.0,028.9,022.1,20.1,0000.0,0003.86,0012.61,0002.55
2024-03-22 12:22:00,SystemResetWarning,0830.9,5.00,000.00,020.2,019.5,000.0,028.9,022.1,20.1,0000.0,0003.89,0013.19,0002.59
2024-03-22 12:23:00,SystemResetWarning,0830.9,5.00,000.00,020.2,019.5,000.0,028.9,022.1,20.1,0000.0,0003.88,0013.04,0002.60
2024-03-22 12:24:00,SystemResetWarning,0830.9,5.00,000.00,020.2,019.5,000.0,028.9,022.0,20.1,0000.0,0003.89,0013.13,0002.59
2024-03-22 12:25:00,SystemResetWarning,0830.8,5.00,000.00,020.2,019.5,000.0,028.9,022.0,20.1,0000.0,0003.93,0013.25,0002.60
2024-03-22 12:26:00,SystemResetWarning,0830.9,5.00,000.00,020.2,019.5,000.0,028.8,022.0,20.1,0000.0,0003.92,0013.30,0002.62
2024-03-22 12:27:00,SystemResetWarning,0830.9,5.00,000.00,020.2,019.5,000.0,028.8,022.0,20.1,0000.0,0003.95,0014.41,0002.63
2024-03-22 12:28:00,SystemResetWarning,0830.9,4.99,000.00,020.2,019.5,000.0,028.8,022.0,20.1,0000.0,0003.99,0013.87,0002.63
2024-03-22 12:29:00,SystemResetWarning,0830.9,4.99,000.00,020.2,019.5,000.0,028.8,022.0,20.1,0000.0,0004.03,0012.80,0002.65
2024-03-22 12:30:00,SystemResetWarning,0831.0,5.01,000.00,020.2,019.5,000.0,028.8,022.0,20.1,0000.0,0004.04,0013.28,0002.65
2024-03-22 12:31:00,SystemResetWarning,0831.0,5.00,000.00,020.2,019.5,000.0,028.8,022.0,20.1,0000.0,0004.02,0012.74,0002.65
2024-03-22 12:32:00,SystemResetWarning,0831.0,5.00,000.00,020.2,019.5,000.0,028.8,022.0,20.1,0000.0,0004.04,0012.95,0002.66
2024-03-22 12:33:00,SystemResetWarning,0831.0,5.00,000.00,020.2,019.5,000.0,028.8,022.0,20.2,0000.0,0004.04,0012.63,0002.64
2024-03-22 12:34:00,SystemResetWarning,0831.0,5.00,000.00,020.2,019.5,000.0,028.8,022.0,20.2,0000.0,0004.06,0013.27,0002.65
2024-03-22 12:35:00,SystemResetWarning,0831.0,5.00,000.00,020.2,019.5,000.0,028.8,022.0,20.2,0000.0,0004.05,0013.55,0002.66
2024-03-22 12:36:00,SystemResetWarning,0830.9,5.00,000.00,020.2,019.5,000.0,028.8,022.0,20.2,0000.0,0004.01,0013.44,0002.66
2024-03-22 12:37:00,SystemResetWarning,0831.0,5.00,000.00,020.2,019.5,000.0,028.8,022.0,20.2,0000.0,0004.02,0013.17,0002.67
2024-03-22 12:38:00,SystemResetWarning,0830.9,4.99,000.00,020.1,019.5,000.0,028.8,022.0,20.2,0000.0,0004.04,0012.15,0002.68
2024-03-22 12:39:00,SystemResetWarning,0830.9,5.00,000.00,020.1,019.5,000.0,028.8,022.0,20.2,0000.0,0004.03,0012.67,0002.72
2024-03-22 12:40:00,SystemResetWarning,0830.9,5.00,000.00,020.1,019.4,000.0,028.8,022.0,20.2,0000.0,0004.04,0012.90,0002.73
2024-03-22 12:41:00,SystemResetWarning,0831.0,5.01,000.00,020.1,019.4,000.0,028.8,022.0,20.1,0000.0,0004.08,0012.30,0002.75
2024-03-22 12:42:00,SystemResetWarning,0831.0,5.00,000.00,020.1,019.4,000.0,028.8,022.0,20.2,0000.0,0004.13,0012.48,0002.76
2024-03-22 12:43:00,SystemResetWarning,0831.1,4.99,000.00,020.1,019.4,000.0,028.8,022.0,20.2,0000.0,0004.12,0013.37,0002.77
2024-03-22 12:44:00,SystemResetWarning,0831.1,5.00,000.00,020.1,019.4,000.0,028.8,021.9,20.2,0000.0,0004.08,0013.35,0002.79
2024-03-22 12:45:00,SystemResetWarning,0831.1,5.00,000.00,020.1,019.4,000.0,028.8,021.9,20.2,0000.0,0004.07,0012.76,0002.79
2024-03-22 12:46:00,SystemResetWarning,0831.1,5.00,000.00,020.1,019.4,000.0,028.8,021.9,20.2,0000.0,0004.05,0012.10,0002.82
2024-03-22 12:47:00,SystemResetWarning,0831.1,5.00,000.00,020.1,019.4,000.0,028.7,021.9,20.2,0000.0,0004.09,0013.12,0002.86
2024-03-22 12:48:00,SystemResetWarning,0831.1,5.00,000.00,020.1,019.4,000.0,028.7,021.9,20.2,0000.0,0004.11,0014.73,0002.86
2024-03-22 12:49:00,SystemResetWarning,0831.2,5.00,000.00,020.1,019.4,000.0,028.7,021.9,20.2,0000.0,0004.09,0014.94,0002.85
2024-03-22 12:50:00,SystemResetWarning,0831.2,5.01,000.00,020.1,019.4,000.0,028.7,021.9,20.2,0000.0,0004.10,0014.49,0002.84
2024-03-22 12:51:00,SystemResetWarning,0831.2,5.00,000.00,020.1,019.4,000.0,028.7,021.9,20.3,0000.0,0004.07,0014.79,0002.83
2024-03-22 12:52:00,SystemResetWarning,0831.1,5.00,000.00,020.1,019.4,000.0,028.7,021.9,20.3,0000.0,0004.10,0015.11,0002.84
2024-03-22 12:53:00,SystemResetWarning,0831.2,5.00,000.00,020.1,019.4,000.0,028.7,021.9,20.3,0000.0,0004.08,0015.94,0002.84
2024-03-22 12:54:00,SystemResetWarning,0831.1,5.00,000.00,020.1,019.4,000.0,028.7,021.9,20.3,0000.0,0004.06,0015.81,0002.85
2024-03-22 12:55:00,SystemResetWarning,0831.1,5.00,000.00,020.1,019.4,000.0,028.7,021.9,20.3,0000.0,0004.09,0015.36,0002.85
2024-03-22 12:56:00,SystemResetWarning,0831.1,5.01,000.00,020.0,019.4,000.0,028.7,021.9,20.3,0000.0,0004.10,0015.34,0002.87
2024-03-22 12:57:00,SystemResetWarning,0831.1,4.99,000.00,020.0,019.4,000.0,028.7,021.8,20.3,0000.0,0004.10,0015.50,0002.86
2024-03-22 12:58:00,SystemResetWarning,0831.2,5.00,000.00,020.0,019.3,000.0,028.7,021.9,20.3,0000.0,0004.11,0015.37,0002.84
2024-03-22 12:59:00,SystemResetWarning,0831.2,5.00,000.00,020.0,019.3,000.0,028.7,021.9,20.3,0000.0,0004.11,0014.30,0002.83
